Lid_Strength_Index
-1 -1 -0 -0 -0 -0 -1 -0 -1 -1 -1 -0 -0 -0 -0 0 -0 -0 -0 -0 -1 -1 -1 -1 -1 -1 4 9 8 4 0 1 5 6 8 9 11 11 13 12 12 12 12 11 10 11 10
-0 -0 -0 -1 -0 0 -0 -0 -0 -1 -1 -1 -1 -0 -0 -0 -0 -0 -0 -0 -0 -0 -0 -1 -1 -1 6 12 4 4 5 5 6 7 8 8 10 10 11 12 13 11 11 11 11 11 11
0 -0 -0 -1 0 -0 -0 0 0 -0 -0 -0 -0 -0 -0 -0 -0 -0 -0 -0 -0 -0 -0 -1 -1 2 7 9 4 6 5 6 6 7 8 8 8 10 11 12 11 12 13 13 13 12 12
1 0 0 -0 -1 -0 0 -0 0 0 0 0 1 1 -0 -0 0 -0 -0 -0 -0 -0 -0 -1 -1 6 11 5 4 6 6 7 6 6 7 7 8 9 10 11 11 13 14 15 13 12 12
0 1 1 0 0 -0 -0 1 -0 -0 1 1 1 1 1 1 0 0 -0 -0 0 -0 -1 -1 5 7 11 3 5 5 7 8 7 7 7 6 8 11 11 13 15 15 17 16 14 12 13
0 1 1 0 1 1 1 0 0 1 1 1 1 1 2 1 1 1 0 -0 0 0 1 2 4 11 9 9 6 6 7 7 8 9 9 9 11 13 14 14 17 16 17 16 16 13 14
0 1 1 1 1 1 1 2 2 1 1 1 1 2 2 2 2 1 1 5 10 10 6 11 11 12 9 7 6 7 7 8 9 10 13 12 14 15 13 14 14 15 16 15 15 13 14
1 1 1 1 1 1 1 1 2 2 2 1 1 1 1 1 1 2 4 8 10 7 10 7 7 7 6 6 9 8 7 9 11 13 12 13 15 12 12 13 14 15 15 15 14 13 14
1 1 2 2 2 1 1 1 1 1 2 2 2 2 1 1 2 3 6 6 4 6 12 10 7 7 7 7 8 8 7 10 12 13 13 14 12 11 12 14 14 14 15 15 15 14 14
1 2 1 2 2 2 1 1 1 1 1 2 2 2 1 1 4 4 5 4 4 6 14 12 11 8 8 7 10 7 7 9 12 12 13 13 11 12 13 14 13 15 13 13 14 15 18
0 0 1 2 2 2 2 2 1 1 1 1 2 1 1 1 3 5 4 3 3 8 19 10 10 7 8 10 10 9 8 9 12 12 11 13 13 13 13 13 12 13 12 13 14 16 18
0 0 0 0 1 2 2 2 2 2 1 1 1 2 2 1 2 2 2 2 4 13 19 13 10 10 10 10 11 10 10 9 10 11 12 13 12 11 11 12 11 11 13 14 15 16 19
1 0 0 -0 -0 0 1 2 3 2 2 1 1 1 2 3 4 1 1 5 14 18 11 13 13 11 12 12 12 12 12 13 13 15 15 14 13 12 11 13 12 13 14 18 20 21 20
2 1 1 0 0 -0 0 1 2 2 2 1 1 1 3 2 -0 0 3 9 17 15 13 11 12 13 13 12 13 13 13 14 12 14 16 16 17 13 12 12 13 14 14 18 22 22 20
2 2 1 1 1 0 0 0 0 1 1 1 1 4 4 2 1 0 6 15 15 13 11 12 12 14 15 13 13 14 15 15 12 12 14 16 16 13 13 12 11 14 15 13 16 24 21
2 2 2 1 1 1 1 0 0 0 1 1 5 6 6 0 -0 3 9 13 11 10 10 10 14 12 15 14 14 15 15 13 13 12 12 13 16 14 14 12 13 13 12 16 18 22 24
2 2 2 1 1 1 1 1 1 0 1 1 6 8 4 0 0 6 13 12 10 8 7 10 12 13 13 14 13 15 14 14 13 13 11 12 14 16 15 15 15 15 15 16 16 18 21
2 2 2 1 2 1 2 1 1 1 1 3 8 11 4 0 8 8 11 9 8 10 7 8 9 10 11 12 13 14 14 13 12 12 13 12 14 18 16 15 15 16 16 15 18 20 19
1 1 1 1 1 1 1 2 1 1 1 6 10 10 5 2 12 11 9 9 8 9 9 9 10 9 9 10 13 12 12 10 10 11 12 12 14 20 17 16 16 16 15 14 15 17 18
1 1 1 1 1 1 1 1 1 1 1 4 9 13 10 6 6 9 10 10 11 7 8 8 9 8 10 11 10 12 12 11 10 10 8 9 12 14 17 16 15 17 16 14 13 17 16
1 1 1 1 1 1 1 1 1 0 1 3 8 12 11 12 12 11 9 10 11 11 8 8 10 10 11 13 12 12 11 11 11 9 9 9 14 13 12 13 15 15 16 15 14 14 17
1 1 0 1 1 1 1 1 1 0 -0 4 9 12 11 12 11 9 10 12 11 10 10 10 11 9 10 12 12 13 11 11 11 11 10 9 14 13 15 12 13 14 15 14 14 14 13
0 0 0 0 0 1 1 1 1 0 1 7 5 5 8 11 12 12 12 10 10 10 9 8 9 10 11 9 8 7 7 8 8 10 11 12 13 15 17 13 14 17 14 13 13 12 13
-0 0 0 -0 0 0 0 1 1 1 0 5 6 5 9 14 10 12 11 11 11 9 10 9 7 9 8 5 6 6 7 8 8 9 8 12 13 14 16 15 21 13 11 11 12 11 11
-0 -0 -0 0 -0 -0 0 0 0 0 0 4 3 5 8 13 11 11 11 10 11 10 10 8 7 6 5 7 11 13 13 12 11 10 10 9 12 15 17 17 14 13 13 13 14 13 10
-1 -0 -0 -0 -0 -0 0 -0 0 0 0 3 3 3 6 11 12 10 12 11 13 13 12 9 9 8 6 10 12 16 17 15 16 14 9 10 10 14 16 19 20 13 10 11 11 15 10
-1 -0 -0 -0 -0 -0 -0 -0 -0 -0 0 3 3 2 6 10 10 9 13 11 10 12 12 17 11 9 8 11 14 15 16 12 16 16 15 14 14 16 16 17 16 13 15 11 16 14 17
-0 -0 -0 -0 -0 -0 -0 -0 -0 -0 0 2 4 2 5 9 10 8 7 9 8 9 12 13 10 9 10 13 13 13 14 13 14 13 14 15 16 16 15 17 19 13 14 13 12 16 16
-1 -1 -0 -0 -1 -0 -0 -0 -0 -0 0 1 5 3 3 7 8 6 6 6 5 5 7 9 10 14 8 11 11 11 13 12 13 16 12 15 13 15 14 14 11 14 12 13 14 15 15